,,,PA_Meas_PMT16A,,PR_Meas_QMR101_102,,RH_Meas_QMH101,,SR_Meas_QMS101,,TA_Meas_QMH101,,GenWind,,GenWind,
date,time,status,PA,status,PR,status,RH,status,SR,status,TA,status,DirAvg,status,SpdAvg,
2008-08-27, 00:00:04,VALID,1009.73,VALID,0,VALID,94.1247,VALID,0,VALID,24.3761,VALID,141,VALID,0.679688,
2008-08-27, 00:01:04,VALID,1009.75,VALID,0,VALID,94.0637,VALID,0,VALID,24.3956,VALID,124,VALID,0.689062,
2008-08-27, 00:02:04,VALID,1009.75,VALID,0.5,VALID,94.1323,VALID,0,VALID,24.415,VALID,151,VALID,0.544141,
2008-08-27, 00:03:04,VALID,1009.79,VALID,0,VALID,94.1171,VALID,0,VALID,24.4169,VALID,120,VALID,1.1082,
2008-08-27, 00:04:04,VALID,1009.77,VALID,0,VALID,94.0408,VALID,0,VALID,24.3761,VALID,131,VALID,1.33945,
2008-08-27, 00:05:04,VALID,1009.77,VALID,0,VALID,94.0789,VALID,0,VALID,24.415,VALID,136,VALID,0.780859,
2008-08-27, 00:06:04,VALID,1009.79,VALID,0,VALID,94.1018,VALID,0,VALID,24.3956,VALID,97,VALID,0.813281,
2008-08-27, 00:07:04,VALID,1009.79,VALID,0,VALID,94.1552,VALID,0,VALID,24.415,VALID,102,VALID,0.664844,
2008-08-27, 00:08:04,VALID,1009.78,VALID,0,VALID,94.1399,VALID,0,VALID,24.3956,VALID,108,VALID,1.01563,
2008-08-27, 00:09:05,VALID,1009.8,VALID,0,VALID,94.1171,VALID,0,VALID,24.3956,VALID,89,VALID,0.675,
2008-08-27, 00:10:05,VALID,1009.79,VALID,0,VALID,94.1018,VALID,0,VALID,24.3956,VALID,104,VALID,1.31445,
2008-08-27, 00:11:05,VALID,1009.8,VALID,0,VALID,94.1171,VALID,0,VALID,24.415,VALID,106,VALID,0.804297,
2008-08-27, 00:12:05,VALID,1009.79,VALID,0,VALID,94.1399,VALID,0,VALID,24.415,VALID,91,VALID,0.725391,
2008-08-27, 00:13:05,VALID,1009.79,VALID,0,VALID,94.1781,VALID,0,VALID,24.415,VALID,97,VALID,0.742188,
2008-08-27, 00:14:05,VALID,1009.79,VALID,0,VALID,94.1628,VALID,0,VALID,24.415,VALID,96,VALID,0.563672,
2008-08-27, 00:15:05,VALID,1009.8,VALID,0,VALID,94.1552,VALID,0,VALID,24.3956,VALID,78,VALID,0.698828,
2008-08-27, 00:16:05,VALID,1009.8,VALID,0,VALID,94.1552,VALID,0,VALID,24.415,VALID,85,VALID,0.603516,
2008-08-27, 00:17:05,VALID,1009.76,VALID,0,VALID,94.1628,VALID,0,VALID,24.3956,VALID,67,VALID,0.852344,
2008-08-27, 00:18:05,VALID,1009.81,VALID,0,VALID,94.1476,VALID,0,VALID,24.3956,VALID,81,VALID,0.851172,
2008-08-27, 00:19:05,VALID,1009.8,VALID,0,VALID,94.1323,VALID,0,VALID,24.3761,VALID,79,VALID,0.742578,
2008-08-27, 00:20:05,VALID,1009.79,VALID,0,VALID,94.1476,VALID,0,VALID,24.3566,VALID,84,VALID,0.958203,
2008-08-27, 00:21:05,VALID,1009.78,VALID,0,VALID,94.1857,VALID,0,VALID,24.3566,VALID,84,VALID,0.588281,
2008-08-27, 00:22:05,VALID,1009.79,VALID,0,VALID,94.2086,VALID,0,VALID,24.3566,VALID,90,VALID,0.873828,
2008-08-27, 00:23:05,VALID,1009.8,VALID,0,VALID,94.2467,VALID,0,VALID,24.3566,VALID,94,VALID,0.888672,
2008-08-27, 00:24:05,VALID,1009.81,VALID,0,VALID,94.2391,VALID,0,VALID,24.3566,VALID,79,VALID,0.896094,
2008-08-27, 00:25:05,VALID,1009.81,VALID,0,VALID,94.2619,VALID,0,VALID,24.3566,VALID,83,VALID,0.953906,
2008-08-27, 00:26:05,VALID,1009.82,VALID,0,VALID,94.3001,VALID,0,VALID,24.3176,VALID,77,VALID,0.871484,
2008-08-27, 00:27:05,VALID,1009.82,VALID,0,VALID,94.3077,VALID,0,VALID,24.3176,VALID,97,VALID,1.17969,
2008-08-27, 00:28:05,VALID,1009.8,VALID,0,VALID,94.2924,VALID,0,VALID,24.3176,VALID,83,VALID,0.897656,
2008-08-27, 00:29:05,VALID,1009.75,VALID,0,VALID,94.2924,VALID,0,VALID,24.2981,VALID,62,VALID,0.957422,
2008-08-27, 00:30:05,VALID,1009.76,VALID,0,VALID,94.3611,VALID,0,VALID,24.2981,VALID,103,VALID,1.0125,
2008-08-27, 00:31:05,VALID,1009.74,VALID,0,VALID,94.3763,VALID,0.105969,VALID,24.3158,VALID,90,VALID,0.672266,
2008-08-27, 00:32:05,VALID,1009.75,VALID,0,VALID,94.4221,VALID,0,VALID,24.2963,VALID,91,VALID,0.573438,
2008-08-27, 00:33:05,VALID,1009.74,VALID,0,VALID,94.4602,VALID,0.105969,VALID,24.3158,VALID,69,VALID,0.758594,
2008-08-27, 00:34:05,VALID,1009.73,VALID,0,VALID,94.4983,VALID,0,VALID,24.2963,VALID,81,VALID,0.630469,
2008-08-27, 00:35:05,VALID,1009.72,VALID,0,VALID,94.4907,VALID,0.105969,VALID,24.3158,VALID,82,VALID,0.742188,
2008-08-27, 00:36:05,VALID,1009.72,VALID,0,VALID,94.5212,VALID,0.105969,VALID,24.2963,VALID,92,VALID,0.899609,
2008-08-27, 00:37:05,VALID,1009.69,VALID,0,VALID,94.506,VALID,0.105969,VALID,24.3158,VALID,97,VALID,0.951953,
2008-08-27, 00:38:05,VALID,1009.72,VALID,0,VALID,94.5212,VALID,0.105969,VALID,24.2963,VALID,97,VALID,0.3125,
2008-08-27, 00:39:05,VALID,1009.71,VALID,0,VALID,94.5365,VALID,0,VALID,24.2963,VALID,97,VALID,0.563281,
2008-08-27, 00:40:05,VALID,1009.67,VALID,0,VALID,94.5593,VALID,0.105969,VALID,24.2963,VALID,97,VALID,0.695313,
2008-08-27, 00:41:05,VALID,1009.66,VALID,0,VALID,94.5593,VALID,0,VALID,24.2768,VALID,98,VALID,0.412891,
2008-08-27, 00:42:05,VALID,1009.69,VALID,0,VALID,94.5822,VALID,0.105969,VALID,24.2963,VALID,102,VALID,0.677734,
2008-08-27, 00:43:05,VALID,1009.66,VALID,0,VALID,94.628,VALID,0.105969,VALID,24.2963,VALID,119,VALID,0.920703,
2008-08-27, 00:44:05,VALID,1009.66,VALID,0,VALID,94.6051,VALID,0.105969,VALID,24.2768,VALID,119,VALID,0.951953,
2008-08-27, 00:45:05,VALID,1009.6,VALID,0,VALID,94.5975,VALID,0.105969,VALID,24.2981,VALID,110,VALID,0.776172,
2008-08-27, 00:46:05,VALID,1009.61,VALID,0,VALID,94.5822,VALID,0,VALID,24.2786,VALID,105,VALID,1.16094,
2008-08-27, 00:47:05,VALID,1009.59,VALID,0,VALID,94.5822,VALID,0,VALID,24.2786,VALID,99,VALID,0.644531,
2008-08-27, 00:48:05,VALID,1009.57,VALID,0,VALID,94.6051,VALID,0,VALID,24.2591,VALID,103,VALID,0.676953,
2008-08-27, 00:49:05,VALID,1009.55,VALID,0,VALID,94.567,VALID,0,VALID,24.2591,VALID,113,VALID,0.986719,
2008-08-27, 00:50:05,VALID,1009.53,VALID,0,VALID,94.5517,VALID,0,VALID,24.2202,VALID,113,VALID,0.798828,
2008-08-27, 00:51:05,VALID,1009.54,VALID,0,VALID,94.5746,VALID,0,VALID,24.2591,VALID,118,VALID,0.883203,
2008-08-27, 00:52:05,VALID,1009.54,VALID,0,VALID,94.5975,VALID,0,VALID,24.2396,VALID,111,VALID,0.601953,
2008-08-27, 00:53:05,VALID,1009.54,VALID,0,VALID,94.5898,VALID,0,VALID,24.2396,VALID,99,VALID,0.570703,
2008-08-27, 00:54:05,VALID,1009.52,VALID,0,VALID,94.6127,VALID,0,VALID,24.2396,VALID,93,VALID,0.880859,
2008-08-27, 00:55:05,VALID,1009.53,VALID,0,VALID,94.6203,VALID,0,VALID,24.2396,VALID,108,VALID,0.946484,
2008-08-27, 00:56:05,VALID,1009.52,VALID,0,VALID,94.6508,VALID,0,VALID,24.2378,VALID,95,VALID,0.86875,
2008-08-27, 00:57:05,VALID,1009.52,VALID,0,VALID,94.6737,VALID,0,VALID,24.3176,VALID,111,VALID,0.889063,
2008-08-27, 00:58:05,VALID,1009.52,VALID,0,VALID,94.6737,VALID,0,VALID,24.2591,VALID,115,VALID,1.0832,
2008-08-27, 00:59:05,VALID,1009.5,VALID,0,VALID,94.689,VALID,0,VALID,24.2591,VALID,100,VALID,0.473828,
2008-08-27, 01:00:05,VALID,1009.48,VALID,0,VALID,94.6814,VALID,0,VALID,24.2591,VALID,98,VALID,0.969531,
2008-08-27, 01:01:05,VALID,1009.45,VALID,0,VALID,94.6814,VALID,0,VALID,24.2591,VALID,86,VALID,0.886328,
2008-08-27, 01:02:05,VALID,1009.46,VALID,0,VALID,94.689,VALID,0,VALID,24.2591,VALID,126,VALID,1.19922,
2008-08-27, 01:03:05,VALID,1009.42,VALID,0,VALID,94.7042,VALID,0,VALID,24.2786,VALID,95,VALID,0.345313,
2008-08-27, 01:04:05,VALID,1009.4,VALID,0,VALID,94.7042,VALID,0,VALID,24.2786,VALID,90,VALID,0.549219,
2008-08-27, 01:05:05,VALID,1009.35,VALID,0,VALID,94.7119,VALID,0,VALID,24.2591,VALID,95,VALID,0.50625,
2008-08-27, 01:06:05,VALID,1009.32,VALID,0,VALID,94.6966,VALID,0,VALID,24.2573,VALID,56,VALID,0.251172,
2008-08-27, 01:07:05,VALID,1009.28,VALID,0,VALID,94.689,VALID,0,VALID,24.2396,VALID,77,VALID,0.648438,
2008-08-27, 01:08:05,VALID,1009.26,VALID,0,VALID,94.6585,VALID,0,VALID,24.2396,VALID,82,VALID,0.384766,
2008-08-27, 01:09:05,VALID,1009.25,VALID,0,VALID,94.6585,VALID,0,VALID,24.2396,VALID,82,VALID,0.856641,
2008-08-27, 01:10:05,VALID,1009.24,VALID,0,VALID,94.689,VALID,0,VALID,24.2396,VALID,78,VALID,0.334375,
2008-08-27, 01:11:05,VALID,1009.2,VALID,0,VALID,94.6508,VALID,0,VALID,24.2202,VALID,81,VALID,0.78125,
2008-08-27, 01:12:05,VALID,1009.17,VALID,0,VALID,94.6814,VALID,0,VALID,24.2202,VALID,69,VALID,0.718359,
2008-08-27, 01:13:05,VALID,1009.15,VALID,0,VALID,94.6814,VALID,0,VALID,24.2007,VALID,74,VALID,0.994922,
2008-08-27, 01:14:05,VALID,1009.13,VALID,0,VALID,94.6737,VALID,0,VALID,24.2007,VALID,76,VALID,0.546094,
2008-08-27, 01:15:05,VALID,1009.13,VALID,0,VALID,94.689,VALID,0,VALID,24.2007,VALID,70,VALID,0.850391,
2008-08-27, 01:16:05,VALID,1009.1,VALID,0,VALID,94.6966,VALID,0.105969,VALID,24.1988,VALID,73,VALID,0.502344,
2008-08-27, 01:17:05,VALID,1009.11,VALID,0,VALID,94.689,VALID,0.105969,VALID,24.1988,VALID,74,VALID,0.598437,
2008-08-27, 01:18:05,VALID,1009.09,VALID,0,VALID,94.7119,VALID,0,VALID,24.1988,VALID,68,VALID,0.474219,
2008-08-27, 01:19:05,VALID,1009.09,VALID,0,VALID,94.7271,VALID,0.105969,VALID,24.1793,VALID,92,VALID,0.935938,
2008-08-27, 01:20:05,VALID,1009.12,VALID,0,VALID,94.7347,VALID,0,VALID,24.1988,VALID,101,VALID,0.505078,
2008-08-27, 01:21:05,VALID,1009.11,VALID,0,VALID,94.7805,VALID,0.105969,VALID,24.1988,VALID,94,VALID,0.480078,
2008-08-27, 01:22:05,VALID,1009.07,VALID,0,VALID,94.811,VALID,0.105969,VALID,24.2396,VALID,124,VALID,0.567578,
2008-08-27, 01:23:05,VALID,1009.09,VALID,0,VALID,94.811,VALID,0,VALID,24.2183,VALID,124,VALID,0.406641,
2008-08-27, 01:24:05,VALID,1009.07,VALID,0,VALID,94.8262,VALID,0,VALID,24.2591,VALID,141,VALID,0.453125,
2008-08-27, 01:25:05,VALID,1009.07,VALID,0,VALID,94.8262,VALID,0,VALID,24.2591,VALID,136,VALID,0.285547,
2008-08-27, 01:26:05,VALID,1009.05,VALID,0,VALID,94.8186,VALID,0,VALID,24.2573,VALID,122,VALID,0.483984,
2008-08-27, 01:27:05,VALID,1009.05,VALID,0,VALID,94.8491,VALID,0,VALID,24.2573,VALID,132,VALID,0.834766,
2008-08-27, 01:28:05,VALID,1009.04,VALID,0,VALID,94.8415,VALID,0,VALID,24.2786,VALID,130,VALID,0.527344,
2008-08-27, 01:29:05,VALID,1009.03,VALID,0,VALID,94.7957,VALID,0.105969,VALID,24.2378,VALID,130,VALID,0.193359,
2008-08-27, 01:30:05,VALID,1009.04,VALID,0,VALID,94.7881,VALID,0.105969,VALID,24.2378,VALID,131,VALID,0.29375,
2008-08-27, 01:31:05,VALID,1009.01,VALID,0,VALID,94.7805,VALID,0,VALID,24.2591,VALID,99,VALID,0.719141,
2008-08-27, 01:32:05,VALID,1009.02,VALID,0,VALID,94.75,VALID,0,VALID,24.2786,VALID,88,VALID,0.587891,
2008-08-27, 01:33:05,VALID,1009.01,VALID,0,VALID,94.7424,VALID,0,VALID,24.2591,VALID,65,VALID,0.415234,
2008-08-27, 01:34:05,VALID,1009.01,VALID,0,VALID,94.7195,VALID,0,VALID,24.2591,VALID,70,VALID,0.571484,
2008-08-27, 01:35:05,VALID,1009.01,VALID,0,VALID,94.7042,VALID,0,VALID,24.2591,VALID,99,VALID,0.566797,
2008-08-27, 01:36:05,VALID,1008.99,VALID,0,VALID,94.6737,VALID,0,VALID,24.261,VALID,78,VALID,0.00585938,
2008-08-27, 01:37:05,VALID,1009,VALID,0,VALID,94.6508,VALID,0,VALID,24.2591,VALID,78,VALID,0,
2008-08-27, 01:38:05,VALID,1008.98,VALID,0,VALID,94.628,VALID,0,VALID,24.2202,VALID,78,VALID,0.201953,
2008-08-27, 01:39:05,VALID,1008.99,VALID,0,VALID,94.6127,VALID,0,VALID,24.2396,VALID,69,VALID,0.286328,
2008-08-27, 01:40:05,VALID,1008.99,VALID,0,VALID,94.5822,VALID,0,VALID,24.2396,VALID,69,VALID,0.498047,
2008-08-27, 01:41:05,VALID,1008.95,VALID,0,VALID,94.5746,VALID,0,VALID,24.2202,VALID,55,VALID,0.505859,
2008-08-27, 01:42:05,VALID,1008.96,VALID,0,VALID,94.5365,VALID,0,VALID,24.2202,VALID,52,VALID,0.516016,
2008-08-27, 01:43:05,VALID,1008.91,VALID,0,VALID,94.5212,VALID,0,VALID,24.2202,VALID,51,VALID,0.517187,
2008-08-27, 01:44:05,VALID,1008.93,VALID,0,VALID,94.5136,VALID,0,VALID,24.2202,VALID,51,VALID,0.182031,
2008-08-27, 01:45:05,VALID,1008.91,VALID,0,VALID,94.4983,VALID,0,VALID,24.2025,VALID,51,VALID,0.323047,
2008-08-27, 01:46:05,VALID,1008.89,VALID,0,VALID,94.5136,VALID,0.105969,VALID,24.1988,VALID,51,VALID,0.161328,
2008-08-27, 01:47:05,VALID,1008.88,VALID,0,VALID,94.5365,VALID,0.105969,VALID,24.1988,VALID,66,VALID,0.296875,
2008-08-27, 01:48:05,VALID,1008.88,VALID,0,VALID,94.5441,VALID,0,VALID,24.1793,VALID,66,VALID,0.0785156,
2008-08-27, 01:49:05,VALID,1008.87,VALID,0,VALID,94.567,VALID,0.105969,VALID,24.2202,VALID,66,VALID,0.222266,
2008-08-27, 01:50:05,VALID,1008.88,VALID,0,VALID,94.5898,VALID,0.105969,VALID,24.1988,VALID,66,VALID,0.177734,
2008-08-27, 01:51:05,VALID,1008.86,VALID,0,VALID,94.5898,VALID,0,VALID,24.2007,VALID,66,VALID,0.226172,
2008-08-27, 01:52:05,VALID,1008.85,VALID,0,VALID,94.6051,VALID,0,VALID,24.1793,VALID,66,VALID,0.433594,
2008-08-27, 01:53:05,VALID,1008.85,VALID,0,VALID,94.6127,VALID,0,VALID,24.1793,VALID,54,VALID,0.417969,
2008-08-27, 01:54:05,VALID,1008.85,VALID,0,VALID,94.5898,VALID,0,VALID,24.2007,VALID,48,VALID,0.414063,
2008-08-27, 01:55:05,VALID,1008.83,VALID,0,VALID,94.5898,VALID,0,VALID,24.1599,VALID,48,VALID,0.429297,
2008-08-27, 01:56:05,VALID,1008.8,VALID,0,VALID,94.6051,VALID,0.105969,VALID,24.1812,VALID,48,VALID,0.378125,
2008-08-27, 01:57:05,VALID,1008.8,VALID,0,VALID,94.5898,VALID,0.105969,VALID,24.1404,VALID,32,VALID,0.524609,
2008-08-27, 01:58:05,VALID,1008.79,VALID,0,VALID,94.6127,VALID,0.105969,VALID,24.1793,VALID,28,VALID,0.423828,
2008-08-27, 01:59:05,VALID,1008.8,VALID,0,VALID,94.628,VALID,0.105969,VALID,24.1209,VALID,13,VALID,0.464063,
2008-08-27, 02:00:05,VALID,1008.8,VALID,0,VALID,94.6203,VALID,0.105969,VALID,24.1014,VALID,1,VALID,0.578125,
2008-08-27, 02:01:05,VALID,1008.78,VALID,0,VALID,94.6585,VALID,0,VALID,24.0837,VALID,1,VALID,0.429297,
2008-08-27, 02:02:05,VALID,1008.82,VALID,0,VALID,94.689,VALID,0,VALID,24.0837,VALID,1,VALID,0.39375,
2008-08-27, 02:03:05,VALID,1008.8,VALID,0,VALID,94.7119,VALID,0,VALID,24.0837,VALID,1,VALID,0.408203,
2008-08-27, 02:04:05,VALID,1008.81,VALID,0,VALID,94.7119,VALID,0,VALID,24.0643,VALID,1,VALID,0.420312,
2008-08-27, 02:05:05,VALID,1008.8,VALID,0,VALID,94.7271,VALID,0,VALID,24.0448,VALID,1,VALID,0.445313,
2008-08-27, 02:06:05,VALID,1008.78,VALID,0,VALID,94.7576,VALID,0,VALID,24.0643,VALID,1,VALID,0.437891,
2008-08-27, 02:07:05,VALID,1008.81,VALID,0,VALID,94.7729,VALID,0,VALID,24.0448,VALID,1,VALID,0.175,
2008-08-27, 02:08:05,VALID,1008.77,VALID,0,VALID,94.7652,VALID,0,VALID,24.0253,VALID,1,VALID,0.287109,
2008-08-27, 02:09:05,VALID,1008.74,VALID,0,VALID,94.7957,VALID,0,VALID,24.0058,VALID,1,VALID,0.021875,
2008-08-27, 02:10:05,VALID,1008.73,VALID,0,VALID,94.8491,VALID,0,VALID,24.0253,VALID,1,VALID,0.103516,
2008-08-27, 02:11:05,VALID,1008.75,VALID,0,VALID,94.8415,VALID,0,VALID,24.0253,VALID,1,VALID,0.142969,
2008-08-27, 02:12:05,VALID,1008.72,VALID,0,VALID,94.8491,VALID,0,VALID,24.0058,VALID,1,VALID,0.290234,
2008-08-27, 02:13:05,VALID,1008.74,VALID,0,VALID,94.8644,VALID,0,VALID,24.0448,VALID,1,VALID,0.179297,
2008-08-27, 02:14:05,VALID,1008.74,VALID,0,VALID,94.8873,VALID,0,VALID,24.0058,VALID,1,VALID,0.197656,
2008-08-27, 02:15:05,VALID,1008.76,VALID,0,VALID,94.9101,VALID,0,VALID,23.9668,VALID,1,VALID,0.148828,
2008-08-27, 02:16:05,VALID,1008.76,VALID,0,VALID,94.9406,VALID,0,VALID,24.0466,VALID,1,VALID,0.122266,
2008-08-27, 02:17:05,VALID,1008.75,VALID,0,VALID,94.9406,VALID,0,VALID,24.0253,VALID,1,VALID,0.153125,
2008-08-27, 02:18:05,VALID,1008.75,VALID,0,VALID,94.9559,VALID,0,VALID,24.0253,VALID,1,VALID,0.113672,
2008-08-27, 02:19:05,VALID,1008.76,VALID,0,VALID,94.9635,VALID,0,VALID,24.0058,VALID,1,VALID,0,
2008-08-27, 02:20:05,VALID,1008.76,VALID,0,VALID,94.9864,VALID,0,VALID,24.0058,VALID,1,VALID,0,
2008-08-27, 02:21:05,VALID,1008.75,VALID,0,VALID,94.994,VALID,0,VALID,24.0058,VALID,1,VALID,0.336328,
2008-08-27, 02:22:05,VALID,1008.74,VALID,0,VALID,94.994,VALID,0,VALID,24.0253,VALID,1,VALID,0.310547,
2008-08-27, 02:23:05,VALID,1008.74,VALID,0,VALID,94.9864,VALID,0,VALID,23.9863,VALID,1,VALID,0.276172,
2008-08-27, 02:24:05,VALID,1008.77,VALID,0,VALID,94.994,VALID,0,VALID,24.0058,VALID,1,VALID,0.276172,
2008-08-27, 02:25:05,VALID,1008.73,VALID,0,VALID,94.994,VALID,0,VALID,23.9863,VALID,1,VALID,0.071875,
2008-08-27, 02:26:05,VALID,1008.74,VALID,0,VALID,95.0245,VALID,0,VALID,23.9863,VALID,1,VALID,0,
2008-08-27, 02:27:05,VALID,1008.75,VALID,0,VALID,95.0169,VALID,0,VALID,24.0076,VALID,2,VALID,0.353906,
2008-08-27, 02:28:05,VALID,1008.7,VALID,0,VALID,95.0321,VALID,0,VALID,24.0076,VALID,2,VALID,0.148828,
2008-08-27, 02:29:05,VALID,1008.72,VALID,0,VALID,95.0169,VALID,0,VALID,23.9863,VALID,2,VALID,0.274609,
2008-08-27, 02:30:05,VALID,1008.72,VALID,0,VALID,95.0474,VALID,0,VALID,24.0253,VALID,2,VALID,0.331641,
2008-08-27, 02:31:05,VALID,1008.72,VALID,0,VALID,95.0779,VALID,0.105969,VALID,24.004,VALID,2,VALID,0.0445312,
2008-08-27, 02:32:05,VALID,1008.72,VALID,0,VALID,95.0626,VALID,0,VALID,23.9845,VALID,2,VALID,0,
2008-08-27, 02:33:05,VALID,1008.72,VALID,0,VALID,95.0626,VALID,0,VALID,24.0253,VALID,2,VALID,0,
2008-08-27, 02:34:05,VALID,1008.75,VALID,0,VALID,95.0855,VALID,0.105969,VALID,24.004,VALID,2,VALID,0,
2008-08-27, 02:35:05,VALID,1008.74,VALID,0,VALID,95.0703,VALID,0.105969,VALID,24.004,VALID,2,VALID,0.0898438,
2008-08-27, 02:36:05,VALID,1008.72,VALID,0,VALID,95.0931,VALID,0.105969,VALID,24.0235,VALID,2,VALID,0.277734,
2008-08-27, 02:37:05,VALID,1008.75,VALID,0,VALID,95.1084,VALID,0.105969,VALID,24.0253,VALID,2,VALID,0.220313,
2008-08-27, 02:38:05,VALID,1008.73,VALID,0,VALID,95.0779,VALID,0.105969,VALID,24.0253,VALID,2,VALID,0.283984,
2008-08-27, 02:39:05,VALID,1008.75,VALID,0,VALID,95.0931,VALID,0,VALID,24.004,VALID,2,VALID,0.325391,
2008-08-27, 02:40:05,VALID,1008.74,VALID,0,VALID,95.0855,VALID,0.105969,VALID,24.004,VALID,20,VALID,0.2625,
2008-08-27, 02:41:05,VALID,1008.74,VALID,0,VALID,95.1084,VALID,0.105969,VALID,24.004,VALID,30,VALID,0.378906,
2008-08-27, 02:42:05,VALID,1008.75,VALID,0,VALID,95.1008,VALID,0.105969,VALID,24.004,VALID,30,VALID,0.302734,
2008-08-27, 02:43:05,VALID,1008.78,VALID,0,VALID,95.1236,VALID,0,VALID,24.0235,VALID,30,VALID,0.331641,
2008-08-27, 02:44:05,VALID,1008.77,VALID,0,VALID,95.116,VALID,0.105969,VALID,24.0235,VALID,30,VALID,0,
2008-08-27, 02:45:05,VALID,1008.78,VALID,0,VALID,95.1694,VALID,0.105969,VALID,24.0429,VALID,30,VALID,0.112891,
2008-08-27, 02:46:05,VALID,1008.81,VALID,0,VALID,95.1236,VALID,0,VALID,24.0466,VALID,42,VALID,0.361328,
2008-08-27, 02:47:05,VALID,1008.79,VALID,0,VALID,95.1465,VALID,0,VALID,24.0253,VALID,80,VALID,0.346094,
2008-08-27, 02:48:05,VALID,1008.78,VALID,0,VALID,95.1236,VALID,0,VALID,24.0466,VALID,79,VALID,0.188281,
2008-08-27, 02:49:05,VALID,1008.79,VALID,0,VALID,95.116,VALID,0,VALID,24.0253,VALID,79,VALID,0,
2008-08-27, 02:50:05,VALID,1008.77,VALID,0,VALID,95.1084,VALID,0,VALID,24.0253,VALID,79,VALID,0.0710938,
2008-08-27, 02:51:05,VALID,1008.77,VALID,0,VALID,95.0931,VALID,0,VALID,24.0058,VALID,79,VALID,0.00234375,
2008-08-27, 02:52:05,VALID,1008.76,VALID,0,VALID,95.1008,VALID,0,VALID,24.0466,VALID,79,VALID,0.211328,
2008-08-27, 02:53:05,VALID,1008.8,VALID,0,VALID,95.0779,VALID,0,VALID,24.0466,VALID,79,VALID,0.158984,
2008-08-27, 02:54:05,VALID,1008.79,VALID,0,VALID,95.0626,VALID,0,VALID,24.0058,VALID,78,VALID,0.244141,
2008-08-27, 02:55:04,VALID,1008.79,VALID,0,VALID,95.0703,VALID,0,VALID,24.0058,VALID,79,VALID,0.090625,
2008-08-27, 02:56:04,VALID,1008.79,VALID,0,VALID,95.0398,VALID,0,VALID,24.0271,VALID,78,VALID,0.164063,
2008-08-27, 02:57:04,VALID,1008.8,VALID,0,VALID,95.055,VALID,0,VALID,24.0076,VALID,78,VALID,0.160156,
2008-08-27, 02:58:04,VALID,1008.8,VALID,0,VALID,95.0474,VALID,0,VALID,23.9863,VALID,78,VALID,0.0195313,
2008-08-27, 02:59:04,VALID,1008.81,VALID,0,VALID,95.0321,VALID,0,VALID,23.9863,VALID,78,VALID,0,
2008-08-27, 03:00:04,VALID,1008.8,VALID,0,VALID,95.055,VALID,0,VALID,24.0271,VALID,78,VALID,0.389062,
2008-08-27, 03:01:04,VALID,1008.82,VALID,0,VALID,95.0779,VALID,0.105969,VALID,24.0235,VALID,80,VALID,0.0582031,
2008-08-27, 03:02:04,VALID,1008.83,VALID,0,VALID,95.0855,VALID,0,VALID,24.004,VALID,80,VALID,0.432813,
2008-08-27, 03:03:04,VALID,1008.82,VALID,0,VALID,95.0474,VALID,0.105969,VALID,24.004,VALID,79,VALID,0.409375,
2008-08-27, 03:04:04,VALID,1008.83,VALID,0,VALID,95.0474,VALID,0,VALID,23.9845,VALID,67,VALID,0.482422,
2008-08-27, 03:05:04,VALID,1008.84,VALID,0,VALID,95.0626,VALID,0.105969,VALID,23.9845,VALID,77,VALID,0.614844,
2008-08-27, 03:06:04,VALID,1008.83,VALID,0,VALID,95.0321,VALID,0.105969,VALID,23.9845,VALID,77,VALID,0.301562,
2008-08-27, 03:07:04,VALID,1008.83,VALID,0,VALID,95.0398,VALID,0.105969,VALID,23.9845,VALID,76,VALID,0.321094,
2008-08-27, 03:08:04,VALID,1008.83,VALID,0,VALID,95.0245,VALID,0.105969,VALID,23.9845,VALID,68,VALID,0.413672,
2008-08-27, 03:09:04,VALID,1008.84,VALID,0,VALID,95.0245,VALID,0,VALID,23.926,VALID,61,VALID,0.325781,
2008-08-27, 03:10:04,VALID,1008.83,VALID,0,VALID,95.0169,VALID,0.105969,VALID,23.9863,VALID,61,VALID,0.217578,
2008-08-27, 03:11:04,VALID,1008.84,VALID,0,VALID,95.0016,VALID,0,VALID,23.965,VALID,49,VALID,0.405859,
2008-08-27, 03:12:04,VALID,1008.89,VALID,0,VALID,95.0016,VALID,0.105969,VALID,23.965,VALID,49,VALID,0.428906,
2008-08-27, 03:13:04,VALID,1008.89,VALID,0,VALID,95.0016,VALID,0.105969,VALID,23.9845,VALID,50,VALID,0.476953,
2008-08-27, 03:14:04,VALID,1008.9,VALID,0,VALID,95.0169,VALID,0.105969,VALID,23.965,VALID,66,VALID,0.499609,
2008-08-27, 03:15:04,VALID,1008.89,VALID,0,VALID,95.0245,VALID,0.105969,VALID,23.965,VALID,56,VALID,0.702734,
2008-08-27, 03:16:04,VALID,1008.91,VALID,0,VALID,95.0093,VALID,0,VALID,23.9473,VALID,58,VALID,0.504687,
2008-08-27, 03:17:04,VALID,1008.9,VALID,0,VALID,95.0093,VALID,0,VALID,23.9473,VALID,88,VALID,0.717578,
2008-08-27, 03:18:04,VALID,1008.89,VALID,0,VALID,95.0169,VALID,0,VALID,23.9668,VALID,85,VALID,0.608203,
2008-08-27, 03:19:04,VALID,1008.88,VALID,0,VALID,95.0245,VALID,0,VALID,23.9668,VALID,97,VALID,0.469922,
2008-08-27, 03:20:04,VALID,1008.86,VALID,0,VALID,95.055,VALID,0,VALID,23.9863,VALID,90,VALID,0.455469,
2008-08-27, 03:21:04,VALID,1008.86,VALID,0,VALID,95.0626,VALID,0,VALID,23.9455,VALID,80,VALID,0.322656,
2008-08-27, 03:22:04,VALID,1008.86,VALID,0,VALID,95.0474,VALID,0,VALID,24.0058,VALID,80,VALID,0.0222656,
2008-08-27, 03:23:04,VALID,1008.86,VALID,0,VALID,95.0398,VALID,0,VALID,23.9668,VALID,53,VALID,0.539844,
2008-08-27, 03:24:04,VALID,1008.85,VALID,0,VALID,95.0321,VALID,0,VALID,23.926,VALID,54,VALID,0.34375,
2008-08-27, 03:25:04,VALID,1008.87,VALID,0,VALID,95.0169,VALID,0,VALID,23.9473,VALID,79,VALID,0.375391,
2008-08-27, 03:26:04,VALID,1008.88,VALID,0,VALID,95.0169,VALID,0,VALID,23.9473,VALID,89,VALID,0.425391,
2008-08-27, 03:27:04,VALID,1008.87,VALID,0,VALID,95.0474,VALID,0,VALID,23.9473,VALID,89,VALID,0.0664063,
2008-08-27, 03:28:04,VALID,1008.85,VALID,0,VALID,95.0474,VALID,0,VALID,23.9455,VALID,98,VALID,0.463281,
2008-08-27, 03:29:04,VALID,1008.86,VALID,0,VALID,95.0398,VALID,0,VALID,23.926,VALID,98,VALID,0.458203,
2008-08-27, 03:30:04,VALID,1008.83,VALID,0,VALID,95.0169,VALID,0,VALID,23.9278,VALID,105,VALID,0.789063,
2008-08-27, 03:31:04,VALID,1008.82,VALID,0,VALID,95.0016,VALID,0,VALID,23.9278,VALID,99,VALID,0.792578,
2008-08-27, 03:32:04,VALID,1008.82,VALID,0,VALID,95.0093,VALID,0,VALID,23.9278,VALID,98,VALID,0.696875,
2008-08-27, 03:33:04,VALID,1008.8,VALID,0,VALID,95.0016,VALID,0,VALID,23.9278,VALID,83,VALID,0.306641,
2008-08-27, 03:34:04,VALID,1008.77,VALID,0,VALID,95.0093,VALID,0,VALID,23.9278,VALID,83,VALID,0.409375,
2008-08-27, 03:35:04,VALID,1008.78,VALID,0,VALID,95.0093,VALID,0,VALID,23.9278,VALID,66,VALID,0.347266,
2008-08-27, 03:36:04,VALID,1008.78,VALID,0,VALID,95.0016,VALID,0,VALID,23.9278,VALID,66,VALID,0.00117188,
2008-08-27, 03:37:04,VALID,1008.79,VALID,0,VALID,95.0016,VALID,0,VALID,23.9278,VALID,66,VALID,0.2375,
2008-08-27, 03:38:04,VALID,1008.81,VALID,0,VALID,94.9788,VALID,0,VALID,23.8889,VALID,70,VALID,0.685938,
2008-08-27, 03:39:04,VALID,1008.78,VALID,0,VALID,94.9864,VALID,0,VALID,23.8889,VALID,71,VALID,0.6375,
2008-08-27, 03:40:04,VALID,1008.79,VALID,0,VALID,94.9788,VALID,0,VALID,23.8694,VALID,69,VALID,0.466406,
2008-08-27, 03:41:04,VALID,1008.76,VALID,0,VALID,94.994,VALID,0,VALID,23.8889,VALID,69,VALID,0.466406,
2008-08-27, 03:42:04,VALID,1008.76,VALID,0,VALID,94.9788,VALID,0,VALID,23.8889,VALID,46,VALID,0.597656,
2008-08-27, 03:43:04,VALID,1008.75,VALID,0,VALID,94.9635,VALID,0,VALID,23.8907,VALID,54,VALID,0.924219,
2008-08-27, 03:44:04,VALID,1008.75,VALID,0,VALID,94.9788,VALID,0,VALID,23.8694,VALID,58,VALID,0.989844,